Location: Emblem
(62.4273°N, 6.4710°E)
Time: 20:16:19
(UTC+02:00)

Vanguard 2 - Pass Details

Date: 11 February 2023
Orbit: 553 x 2927 km, 32.9° (Epoch: 27 March)

Event Time Altitude Azimuth Distance (km) Brightness Sun altitude
Rises 21:59:27 0° 223° (SW) 4,995 11.7 -33.1°
Reaches altitude 10° 22:04:23 10° 203° (SSW) 4,462 11.2 -33.5°
Enters shadow 22:06:09 13° 195° (SSW) 4,388 11.1 -33.7°
Maximum altitude 22:10:52 16° 172° (S) 4,500 - -34.1°
Drops below altitude 10° 22:18:31 10° 143° (SE) 5,420 - -34.7°
Sets 22:25:46 0° 126° (SE) 6,695 - -35.3°
